FW7205 Weather Reports


Display with metric or nautical units.
time (UTC)temp
F
wind
direction
speed
MPH
gust
MPH
rain 1hr
in
rain 24hr
in
rain mn
in
humidity
%
barometer
mb
20260508220117 79 0 0.0 1.0 0.00 0.00 0.00 79 1008.4
20260508214556 79 0 0.0 2.0 0.00 0.00 0.00 79 1008.5
20260508213100 79 0 0.0 1.0 0.00 0.00 0.00 79 1008.7
20260508211558 79 0 0.0 2.0 0.00 0.00 0.00 77 1008.8
20260508210058 79 0 0.0 2.0 0.00 0.00 0.00 79 1008.8
20260508204605 78 0 0.0 2.0 0.00 0.00 0.00 79 1009.1
20260508203101 78 0 0.0 2.0 0.00 0.00 0.00 78 1009.1
20260508201557 78 0 0.0 1.0 0.00 0.00 0.00 80 1009.3
20260508200057 78 0 0.0 1.0 0.00 0.00 0.00 79 1009.5
20260508194555 78 0 0.0 2.0 0.00 0.00 0.00 78 1009.6
20260508193106 78 0 0.0 2.0 0.00 0.00 0.00 79 1010.1
20260508191555 76 0 0.0 2.0 0.00 0.00 0.00 80 1010.0
20260508190107 78 78 0.0 3.0 0.00 0.00 0.00 79 1010.2
20260508184558 77 0 0.0 3.0 0.00 0.00 0.00 80 1010.6
20260508183059 76 0 0.0 2.0 0.00 0.00 0.00 81 1010.7
20260508181607 74 0 0.0 2.0 0.00 0.00 0.00 81 1010.9
20260508180106 72 110 0.0 2.0 0.00 0.00 0.00 83 1011.3
20260508174612 71 0 0.0 1.0 0.00 0.00 0.00 84 1011.5
20260508173051 71 0 0.0 2.0 0.00 0.00 0.00 84 1011.4
20260508171554 71 0 0.0 2.0 0.00 0.00 0.00 85 1011.8
20260508170055 70 0 0.0 2.0 0.00 0.00 0.00 85 1011.8
20260508164600 70 111 1.0 2.0 0.00 0.00 0.00 85 1011.8
20260508163054 69 0 0.0 2.0 0.00 0.00 0.00 85 1011.9
20260508161605 68 114 0.0 3.0 0.00 0.00 0.00 86 1012.0
20260508160104 67 0 0.0 2.0 0.00 0.00 0.00 88 1012.1
20260508154556 67 0 0.0 2.0 0.00 0.00 0.00 88 1012.4
20260508153104 66 0 0.0 3.0 0.00 0.00 0.00 88 1012.6
20260508151603 66 110 1.0 3.0 0.00 0.00 0.00 88 1012.7
20260508150059 65 360 0.0 3.0 0.00 0.00 0.00 90 1012.9
20260508144607 64 123 0.0 3.0 0.00 0.00 0.00 90 1013.0
20260508143059 64 65 1.0 3.0 0.00 0.00 0.00 90 1012.7
20260508141605 63 0 0.0 3.0 0.00 0.00 0.00 90 1012.6
20260508140100 63 360 1.0 3.0 0.00 0.00 0.00 90 1012.9
20260508134613 63 71 1.0 3.0 0.00 0.00 0.00 89 1012.8
20260508133059 63 0 0.0 2.0 0.00 0.00 0.00 88 1012.9
20260508131603 63 66 0.0 3.0 0.00 0.00 0.00 88 1012.7
20260508130100 62 0 0.0 2.0 0.00 0.00 0.00 87 1012.8
20260508124557 63 0 0.0 2.0 0.00 0.00 0.00 87 1013.3
20260508123107 63 68 0.0 2.0 0.00 0.00 0.00 86 1013.3
20260508121558 63 0 0.0 2.0 0.00 0.00 0.00 85 1013.2
20260508120055 63 0 0.0 2.0 0.00 0.00 0.00 84 1013.4
20260508114558 63 0 0.0 1.0 0.00 0.00 0.00 83 1013.3
20260508113106 63 0 0.0 1.0 0.00 0.00 0.00 83 1013.3
20260508111557 63 0 0.0 0.0 0.00 0.00 0.00 83 1012.7
20260508110055 63 0 0.0 2.0 0.00 0.00 0.00 83 1012.4
20260508104601 63 0 0.0 2.0 0.00 0.00 0.00 83 1012.5
20260508103058 63 0 0.0 2.0 0.00 0.00 0.00 82 1013.0
20260508101600 63 66 0.0 3.0 0.00 0.00 0.00 83 1012.9
20260508100100 63 64 1.0 2.0 0.00 0.00 0.00 83 1012.8
20260508094615 63 64 1.0 2.0 0.00 0.00 0.00 83 1012.7
20260508093053 62 0 0.0 2.0 0.00 0.00 0.00 83 1013.0
20260508091601 62 0 0.0 1.0 0.00 0.00 0.00 83 1012.7
20260508090056 62 0 0.0 3.0 0.00 0.00 0.00 83 1012.5
20260508084556 62 63 0.0 2.0 0.00 0.00 0.00 83 1012.6
20260508083054 62 0 1.0 3.0 0.00 0.00 0.00 83 1012.5
20260508081616 62 0 0.0 3.0 0.00 0.00 0.00 84 1012.8
20260508080100 62 0 0.0 1.0 0.00 0.00 0.00 84 1012.7
20260508074558 62 0 0.0 0.0 0.00 0.00 0.00 84 1013.4
20260508073103 62 0 0.0 0.0 0.00 0.00 0.00 84 1013.4
20260508071558 62 0 0.0 2.0 0.00 0.00 0.00 84 1013.2
20260508070104 62 0 0.0 1.0 0.00 0.00 0.00 83 1013.8
20260508064607 62 0 0.0 2.0 0.00 0.00 0.00 83 1013.5
20260508063105 62 24 0.0 2.0 0.00 0.00 0.00 83 1013.6
20260508061557 62 0 0.0 3.0 0.00 0.00 0.00 83 1013.3
20260508060057 62 0 0.0 1.0 0.00 0.00 0.00 82 1013.5
20260508054553 63 0 0.0 2.0 0.00 0.00 0.00 82 1013.7
20260508053057 63 0 1.0 2.0 0.00 0.00 0.00 82 1013.2
20260508051556 63 0 1.0 3.0 0.00 0.00 0.00 81 1013.4
20260508050057 63 0 0.0 1.0 0.00 0.00 0.00 81 1014.2
20260508044553 63 0 0.0 1.0 0.00 0.00 0.00 81 1013.6
20260508043054 63 47 1.0 3.0 0.00 0.00 0.00 80 1013.3
20260508041555 63 0 0.0 1.0 0.00 0.00 0.00 80 1014.2
20260508040059 63 0 0.0 0.0 0.00 0.00 0.00 80 1013.8
20260508034559 63 0 0.0 2.0 0.00 0.00 0.00 80 1013.8
20260508033054 64 0 0.0 2.0 0.00 0.00 0.00 80 1013.3
20260508031557 64 0 0.0 3.0 0.00 0.00 0.00 79 1013.2
20260508030055 64 360 0.0 3.0 0.00 0.00 0.00 79 1012.8
20260508024555 64 360 0.0 2.0 0.00 0.00 0.00 78 1013.5
20260508023054 64 360 0.0 2.0 0.00 0.00 0.00 77 1013.9
20260508021556 64 360 0.0 3.0 0.00 0.00 0.00 77 1013.1
20260508020103 64 360 0.0 3.0 0.00 0.00 0.00 76 1013.1
20260508014557 65 0 0.0 1.0 0.00 0.00 0.00 76 1013.6
20260508013056 65 0 0.0 1.0 0.00 0.00 0.00 75 1013.7
20260508011555 65 0 0.0 1.0 0.00 0.00 0.00 74 1014.0
20260508010057 65 0 0.0 2.0 0.00 0.00 0.00 73 1013.9
20260508004600 66 0 0.0 2.0 0.00 0.00 0.00 73 1013.9
20260508003052 66 52 0.0 2.0 0.00 0.00 0.00 72 1013.5
20260508001555 66 0 0.0 1.0 0.00 0.00 0.00 72 1013.9
20260508000053 67 0 0.0 1.0 0.00 0.00 0.00 71 1014.2
20260507234555 67 0 0.0 1.0 0.00 0.00 0.00 71 1014.1
20260507233056 67 41 0.0 3.0 0.00 0.00 0.00 70 1014.2
20260507231558 67 0 0.0 3.0 0.00 0.00 0.00 69 1013.9
20260507230101 67 0 0.0 2.0 0.00 0.00 0.00 69 1014.1
20260507224558 68 337 0.0 2.0 0.00 0.00 0.00 69 1014.7
20260507223052 68 344 0.0 2.0 0.00 0.00 0.00 69 1014.4
20260507221556 68 329 0.0 3.0 0.00 0.00 0.00 69 1014.2